Skip Page Navigation
NASA JPL Caltech
NASA Logo - Jet Propulsion Laboratory + View the NASA Portal
+ Center for Near-Earth Object Studies
JPL Home Earth Solar System Stars & Galaxies Technology
JPL Solar System Dynamics
BODIES ORBITS EPHEMERIDES TOOLS PHYSICAL DATA DISCOVERY FAQ SITE MAP
JPL Small-Body Database Browser
Search: [ help ]  
215179 (2000 GQ171)
Classification: Main-belt Asteroid          SPK-ID: 2215179
Ephemeris | Orbit Diagram | Orbital Elements | Mission Design | Physical Parameters | Discovery Circumstances | Close-Approach Data ]

[ show orbit diagram ]
Orbital Elements at Epoch 2459000.5 (2020-May-31.0) TDB
Reference: JPL 17 (heliocentric ecliptic J2000)
 Element Value Uncertainty (1-sigma)   Units 
e .1992823057452458 6.4833e-08  
a 2.685550499747205 2.601e-08 au
q 2.150367803962285 1.8093e-07 au
i 9.612405510838347 7.5566e-06 deg
node 194.8587416286411 3.7086e-05 deg
peri 13.70949990772692 4.277e-05 deg
M 205.4232792949256 2.6926e-05 deg
tp 2459690.723911931847
(2022-Apr-21.22391193)
0.00012787 TDB
period 1607.49048861992
4.40
2.3353e-05
6.394e-08
d
yr
n .22395155837536 3.2535e-09 deg/d
Q 3.220733195532125 3.1193e-08 au
  Orbit Determination Parameters
   # obs. used (total)      247  
   data-arc span      7150 days (19.58 yr)  
   first obs. used      2000-04-05  
   last obs. used      2019-11-02  
   planetary ephem.      DE431  
   SB-pert. ephem.      SB431-N16  
   condition code      0  
   norm. resid. RMS      .61001  
   source      ORB  
   producer      Otto Matic  
   solution date      2019-Dec-04 16:59:43  

Additional Information
 Earth MOID = 1.14736 au 
 Jupiter MOID = 1.74073 au 
 T_jup = 3.326 
[ show covariance matrix ]

Ephemeris | Orbit Diagram | Orbital Elements | Mission Design | Physical Parameters | Discovery Circumstances | Close-Approach Data ]

Physical Parameter Table
Parameter Symbol Value Units Sigma Reference Notes
absolute magnitude H 16.2   n/a MPO454545  

215179 (2000 GQ171)          Discovered 2000-Apr-05 by LONEOS at Anderson Mesa
Reference: 20090607/Numbers.arcLast Updated: 2009-06-08

[ show close-approach data ]
Alternate Designations
 2000 GQ171 = 2004 BG87 
Ephemeris | Orbit Diagram | Orbital Elements | Mission Design | Physical Parameters | Discovery Circumstances | Close-Approach Data ]
ABOUT SSD CREDITS/AWARDS PRIVACY/COPYRIGHT GLOSSARY LINKS
FirstGov 2020-Jul-12 01:13 UT
(server date/time)  
NASA Home Page
Site Manager:   Ryan S. Park
Webmaster  Alan B. Chamberlin